Flag for Canada Weather past 2 weeks in Delta, British Columbia, Canada

Now
75 °F

Scattered clouds.


Feels Like: 77 °F
Forecast: 57 / 84 °F
Wind: 12 mph from Northwest

Location: Vancouver International Air-Port

Current Time: Aug 1, 2015 at 5:55:26 PM

Latest Report: Aug 1, 2015 at 5:00 PM


Visibility: 30 mi

Pressure: 29.93 "Hg

Humidity: 61%

Dew point: 61 °F

Location of DeltaLocation

Historic Weather in Delta — Graph

°F

Delta temperature yesterday

Maximum temperature yesterday: 77 °F (at 2:00 PM)
Minimum temperature yesterday: 61 °F (at 6:00 AM)
Average temperature yesterday: 70 °F

Past Weeks' High & Low Weather Summary

 TemperatureHumidityPressure
High81 °F (Jul 19, 6:00 PM)94% (Jul 24, 10:00 AM)30.28 "Hg (Jul 24, 10:00 AM)
Low55 °F (Jul 27, 3:00 AM)46% (Jul 21, 7:00 PM)29.85 "Hg (Jul 22, 8:00 PM)
Average66 °F73%30.02 "Hg
* Reported Jul 17 4:00 PM — Aug 1 4:00 PM, Delta, Weather by CustomWeather, © 2015

Note: Actual official high and low records may vary slightly from our data, if they occured in-between our weather recording intervals... More about our weather records

Advertising

Delta weather history for previous 24 hours

 ConditionsComfort  
Time TempWeatherWind HumidityBarometerVisibility
4:00 PM
Sat, Aug 1
75 °FScattered clouds.8 mph61%29.95 "Hg30 mi
3:00 PM75 °FScattered clouds.8 mph61%29.96 "Hg30 mi
2:00 PM75 °FBroken clouds.10 mph61%29.98 "Hg30 mi
1:00 PM72 °FBroken clouds.12 mph73%29.99 "Hg30 mi
12:00 PM72 °FBroken clouds.14 mph69%30.00 "Hg30 mi
11:00 AM70 °FPartly sunny.15 mph73%30.01 "Hg30 mi
10:00 AM70 °FScattered clouds.15 mph73%30.01 "Hg30 mi
9:00 AM68 °FPassing clouds.15 mph78%30.03 "Hg30 mi
8:00 AM68 °FPassing clouds.13 mph78%30.02 "Hg30 mi
7:00 AM66 °FPassing clouds.13 mph83%30.01 "Hg30 mi
6:00 AM66 °FClear.17 mph78%30.00 "Hg30 mi
5:00 AM64 °FClear.9 mph88%29.99 "Hg30 mi
4:00 AM64 °FClear.10 mph88%29.98 "Hg30 mi
3:00 AM63 °FClear.7 mph88%29.98 "Hg30 mi
2:00 AM66 °FClear.10 mph83%29.97 "Hg30 mi
1:00 AM66 °FClear.8 mph88%29.98 "Hg30 mi
12:00 AM64 °FClear.5 mph94%29.98 "Hg30 mi
11:00 PM
Fri, Jul 31
68 °FClear.3 mph83%29.98 "Hg30 mi
10:00 PM68 °FClear.No wind83%29.97 "Hg30 mi
9:00 PM68 °FSunny.6 mph83%29.96 "Hg30 mi
8:00 PM73 °FSunny.2 mph65%29.97 "Hg30 mi
7:00 PM73 °FSunny.7 mph65%29.97 "Hg30 mi
6:00 PM75 °FSunny.6 mph65%29.99 "Hg30 mi
5:00 PM77 °FSunny.7 mph54%30.01 "Hg30 mi
Weather by CustomWeather, © 2015

See weather overviewHow to use our weather pages